[[{"header":{"parameterUnit":"m.s-1","parameterCategory":1,"la1":30.2992,"la2":30.254,"lo1":-89.0895,"lo2":-89.0443,"dy":0.0025,"dx":0.0025,"nx":19,"ny":19,"refTime":"2026-05-07T03:00:00:Z","depth":0,"parameterNumber":2,"parameterNumberName":"U-component_of_WINDS"},"data":[0,0,0,-3.8336,-3.8338,-3.8387,-3.8387,-3.8471,-3.8471,0,0,0,0,0,0,0,0,0,0,0,-3.8335,-3.8336,-3.8336,-3.8338,-3.8387,-3.8387,-3.847,-3.8472,0,0,0,0,0,0,0,0,0,0,0,-3.8335,-3.8336,-3.8337,-3.8338,-3.8387,-3.8387,-3.847,-3.8426,0,0,0,0,0,0,0,0,0,0,-3.8374,-3.8386,-3.8335,-3.8337,-3.8338,-3.8387,-3.8387,-3.8423,-3.8428,-3.8458,0,-3.8488,0,-3.8481,-3.8479,-3.8479,0,0,0,-3.8328,-3.8382,-3.8383,-3.8337,-3.8339,-3.8387,-3.8362,-3.8426,-3.8432,-3.8465,-3.8488,-3.8491,-3.8483,-3.8479,-3.848,-3.8683,-3.8685,0,0,-3.8325,-3.8351,-3.8379,-3.8388,-3.8382,-3.836,-3.8363,-3.8429,-3.8456,-3.8489,-3.8493,-3.8484,-3.848,-3.8481,-3.8682,-3.8684,0,0,0,-3.8324,-3.8349,-3.8348,-3.8385,-3.8392,-3.8362,-3.8365,-3.8453,-3.8451,-3.8493,-3.8485,-3.8481,-3.8482,-3.868,-3.8682,-3.8777,0,0,0,-3.8322,-3.8349,-3.8348,-3.8364,-3.8391,-3.8423,-3.8389,-3.8447,-3.8453,-3.8484,-3.8481,-3.8483,-3.8679,-3.8681,-3.8771,-3.8817,0,0,0,-3.8327,-3.8349,-3.8361,-3.8365,-3.8387,-3.8422,-3.8423,-3.8447,-3.8449,-3.8479,-3.8483,-3.8678,-3.8681,-3.8765,-3.8808,-3.8877,0,0,0,-3.834,-3.8444,-3.8363,-3.8475,-3.8387,-3.8481,-3.8422,-3.849,-3.8528,-3.8481,-3.8679,-3.8682,-3.8764,-3.8802,-3.8872,-3.8939,-3.897,0,0,-3.8485,-3.8462,-3.8526,-3.8455,-3.8569,-3.8471,-3.8599,-3.8609,-3.8588,-3.8653,-3.8657,-3.8773,-3.8807,-3.8876,-3.9137,-3.9162,0,0,0,-3.8581,-3.8627,-3.8652,-3.8689,-3.87,-3.8713,-3.8701,-3.8705,-3.8758,-3.8627,-3.8817,-3.8836,-3.8875,-3.8906,-3.8927,-3.8959,-3.8698,-3.8698,-3.8697,-3.882,-3.879,-3.8894,-3.8869,-3.8907,-3.8894,-3.8921,-3.8924,-3.8881,-3.8927,-3.8945,-3.9107,-3.9145,-3.916,-3.9194,-3.898,-3.898,-3.898,-3.8981,-3.9029,-3.9089,-3.9032,-3.9112,-3.9079,-3.9146,-3.9139,-3.9106,-3.9164,-3.9091,-3.9124,-3.9045,-3.9189,-3.9216,-3.8987,-3.8986,-3.8985,-3.8985,-3.8984,-3.9181,-3.9204,-3.9208,-3.926,-3.9303,-3.9275,-3.9333,-3.9301,-3.9272,-3.9305,-3.932,-3.9318,-3.9312,-3.9315,-3.9315,-3.9316,-3.9316,-3.9317,-3.9317,-3.9336,-3.9338,-3.9391,-3.9413,-3.9433,-3.9456,-3.9446,-3.9465,-3.9477,-3.9449,-3.9449,-3.9402,-3.9209,-3.916,-3.9326,-3.9324,-3.9323,-3.9322,-3.9322,-3.9555,-3.9501,-3.9583,-3.9604,-3.9627,-3.9672,-3.9632,-3.9674,-3.9685,-3.9715,-3.9662,-3.9525,-3.9498,-3.9482,-3.9441,-3.9669,-3.9669,-3.9669,-3.9669,-3.9683,-3.9667,-3.9744,-3.9779,-3.981,-3.9782,-3.9876,-3.987,-3.9856,-3.9861,-3.9824,-3.9768,-3.9752,-3.9735,-3.9712,-3.9674,-3.9956,-3.9956,-3.9956,-3.9815,-3.9802,-3.9887,-3.9873,-3.9889,-3.9904,-3.9991,-4.0034,-4.0006,-3.9967,-3.9864,-3.9852,-3.9761,-3.9733,-3.969,-3.9656,-3.9584,0,0]},{"header":{"parameterUnit":"m.s-1","parameterCategory":1,"la1":30.2992,"la2":30.254,"lo1":-89.0895,"lo2":-89.0443,"dy":0.0025,"dx":0.0025,"nx":19,"ny":19,"refTime":"2026-05-07T03:00:00:Z","depth":0,"parameterNumber":3,"parameterNumberName":"V-component_of_WINDS"},"data":[0,0,0,2.167,2.167,2.1677,2.1677,2.1683,2.1683,0,0,0,0,0,0,0,0,0,0,0,2.1668,2.1668,2.167,2.167,2.1677,2.1677,2.1683,2.1683,0,0,0,0,0,0,0,0,0,0,0,2.1668,2.1668,2.1668,2.167,2.1677,2.1677,2.1683,2.1678,0,0,0,0,0,0,0,0,0,0,2.1673,2.167,2.1668,2.1668,2.167,2.1677,2.1677,2.1678,2.1679,2.1679,0,2.1681,0,2.1682,2.1683,2.1683,0,0,0,2.167,2.167,2.1672,2.1668,2.167,2.1677,2.1674,2.1678,2.1679,2.168,2.1681,2.1681,2.1682,2.1683,2.1683,2.1691,2.1691,0,0,2.167,2.1669,2.1672,2.1673,2.1673,2.1674,2.1674,2.1679,2.1679,2.1681,2.1681,2.1682,2.1683,2.1683,2.1691,2.1691,0,0,0,2.1669,2.1668,2.167,2.1672,2.1674,2.1674,2.1674,2.1679,2.168,2.1681,2.1682,2.1683,2.1683,2.1691,2.1691,2.1692,0,0,0,2.1669,2.1668,2.167,2.1669,2.1674,2.1677,2.1674,2.168,2.168,2.1682,2.1683,2.1683,2.1691,2.1691,2.1692,2.1693,0,0,0,2.1668,2.1668,2.1669,2.1669,2.1672,2.1676,2.1678,2.168,2.1681,2.1683,2.1683,2.1691,2.1691,2.1692,2.1693,2.1695,0,0,0,2.1666,2.1669,2.1669,2.1672,2.1672,2.1678,2.1678,2.1682,2.1684,2.1683,2.1691,2.1691,2.1692,2.1693,2.1695,2.1697,2.1698,0,0,2.1668,2.1669,2.1671,2.1672,2.1677,2.1677,2.1683,2.1685,2.1686,2.1689,2.1689,2.1692,2.1693,2.1695,2.1703,2.1703,0,0,0,2.1672,2.1673,2.1675,2.1678,2.1682,2.1684,2.1687,2.1688,2.1691,2.1687,2.1694,2.1694,2.1696,2.1697,2.1697,2.1698,2.1691,2.1691,2.1691,2.1673,2.1675,2.168,2.1683,2.1686,2.169,2.1692,2.1694,2.1694,2.1696,2.1697,2.1701,2.1702,2.1703,2.1704,2.1698,2.1698,2.1698,2.1698,2.1677,2.168,2.1683,2.1688,2.169,2.1694,2.1698,2.1698,2.1702,2.17,2.1702,2.17,2.1703,2.1705,2.1698,2.1698,2.1698,2.1698,2.1698,2.1678,2.168,2.1683,2.1689,2.1693,2.1696,2.1701,2.1702,2.1704,2.1705,2.1706,2.1706,2.1707,2.1706,2.1706,2.1706,2.1706,2.1706,2.1706,2.1678,2.1681,2.1685,2.169,2.1693,2.1697,2.1702,2.1705,2.1708,2.1709,2.1709,2.1709,2.1703,2.1702,2.1706,2.1706,2.1706,2.1706,2.1706,2.1681,2.1681,2.1687,2.169,2.1697,2.1702,2.1705,2.171,2.1713,2.1715,2.1716,2.1711,2.1711,2.1711,2.1709,2.1715,2.1715,2.1715,2.1715,2.1681,2.1682,2.169,2.1695,2.17,2.1704,2.1711,2.1715,2.1719,2.1721,2.172,2.1719,2.1718,2.1719,2.1718,2.1717,2.1724,2.1724,2.1724,2.1683,2.1685,2.1691,2.1696,2.1702,2.1708,2.1714,2.172,2.1724,2.1725,2.1722,2.1722,2.172,2.1719,2.1718,2.1718,2.1715,0,0]}]]